Home > Weather > Duluth > Past weeks

Flag for U.S.A. Weather for the Past 2 Weeks in Duluth, Minnesota, U.S.A.

Now
3 °F

Clear.


Feels Like: -6 °F
Forecast: -8 / 18 °F
Wind: 5 mph from Southwest

Location: Sky Harbor Airport

Current Time: Feb 13, 2016 at 11:12:16 PM

Latest Report: Feb 13, 2016 at 10:34 PM


Visibility: 10 mi

Pressure: 30.38 "Hg

Humidity: 55%

Dew point: -9 °F

Location of DuluthLocation

Historic Weather in Duluth — Graph

°F

Duluth Temperature Yesterday

Maximum temperature yesterday: 14 °F (at 12:14 AM)
Minimum temperature yesterday: -2 °F (at 10:54 PM)
Average temperature yesterday: 5 °F

High & Low Weather Summary for the Past Weeks

 TemperatureHumidityPressure
High43 °F (Jan 30, 12:14 PM)93% (Jan 29, 10:54 PM)30.65 "Hg (Jan 29, 10:54 PM)
Low-9 °F (Feb 13, 6:33 AM)30% (Feb 13, 5:34 PM)29.38 "Hg (Jan 30, 12:54 AM)
Average19 °F71%30.01 "Hg
* Reported Jan 29 9:34 PM — Feb 13 9:54 PM, Duluth, Weather by CustomWeather, © 2016

Note: Actual official high and low records may vary slightly from our data, if they occured in-between our weather recording intervals... More about our weather records

Advertising

Duluth Weather History for the Previous 24 Hours

 ConditionsComfort  
Time TempWeatherWind HumidityBarometerVisibility
9:54 PM
Sat, Feb 13
3 °FClear.5 mph55%30.37 "Hg10 mi
9:33 PM3 °FClear.3 mph60%30.39 "Hg10 mi
8:54 PM5 °FClear.6 mph51%30.40 "Hg10 mi
8:14 PM3 °FClear.6 mph55%30.40 "Hg10 mi
7:54 PM5 °FClear.6 mph51%30.41 "Hg10 mi
7:33 PM7 °FClear.6 mph51%30.42 "Hg10 mi
7:14 PM10 °FClear.6 mph30%30.42 "Hg10 mi
6:54 PM10 °FClear.No wind30%30.43 "Hg10 mi
6:34 PM10 °FClear.No wind30%30.44 "Hg10 mi
6:14 PM10 °FClear.No wind30%30.44 "Hg10 mi
5:53 PM10 °FClear.No wind36%30.44 "Hg10 mi
5:34 PM10 °FClear.No wind30%30.44 "Hg10 mi
5:14 PM10 °FSunny.5 mph40%30.45 "Hg10 mi
4:54 PM10 °FSunny.3 mph36%30.46 "Hg10 mi
4:32 PM10 °FSunny.3 mph33%30.46 "Hg10 mi
3:54 PM10 °FSunny.5 mph36%30.47 "Hg10 mi
3:33 PM10 °FSunny.5 mph36%30.48 "Hg10 mi
2:53 PM10 °FSunny.7 mph36%30.49 "Hg10 mi
2:34 PM10 °FSunny.3 mph33%30.49 "Hg10 mi
2:14 PM9 °FSunny.5 mph39%30.51 "Hg10 mi
1:53 PM9 °FSunny.6 mph39%30.53 "Hg10 mi
1:34 PM7 °FSunny.8 mph39%30.54 "Hg10 mi
1:14 PM7 °FSunny.6 mph39%30.55 "Hg10 mi
12:53 PM5 °FSunny.8 mph42%30.56 "Hg10 mi
12:34 PM3 °FSunny.7 mph46%30.57 "Hg10 mi
12:14 PM3 °FSunny.10 mph46%30.58 "Hg10 mi
11:53 AM1 °FSunny.12 mph46%30.59 "Hg10 mi
11:34 AM0 °FSunny.10 mph50%30.60 "Hg10 mi
11:14 AM-2 °FSunny.8 mph54%30.61 "Hg10 mi
10:53 AM-4 °FSunny.8 mph54%30.62 "Hg10 mi
10:31 AM-6 °FSunny.N/A59%30.63 "Hg10 mi
10:14 AM-6 °FSunny.6 mph59%30.64 "Hg10 mi
9:54 AM-8 °FSunny.5 mph58%30.64 "HgN/A
9:34 AM-8 °FSunny.No wind58%30.64 "Hg10 mi
9:14 AM-8 °FSunny.3 mph58%30.64 "Hg10 mi
8:54 AM-9 °FSunny.5 mph64%30.64 "Hg10 mi
8:34 AM-9 °FSunny.5 mph64%30.65 "Hg10 mi
8:13 AM-9 °FSunny.7 mph64%30.65 "Hg10 mi
7:54 AM-9 °FSunny.9 mph64%30.65 "Hg10 mi
7:34 AM-9 °FSunny.7 mph64%30.65 "Hg10 mi
7:14 AM-9 °FClear.8 mph64%30.64 "Hg10 mi
6:54 AM-9 °FClear.8 mph64%30.63 "Hg10 mi
6:33 AM-9 °FClear.7 mph64%30.63 "Hg10 mi
6:14 AM-8 °FClear.6 mph58%30.63 "Hg10 mi
5:54 AM-8 °FClear.9 mph58%30.63 "Hg10 mi
5:33 AM-8 °FClear.14 mph64%30.63 "Hg10 mi
5:14 AM-6 °FClear.15 mph59%30.63 "Hg10 mi
4:54 AM-8 °FClear.12 mph64%30.63 "Hg10 mi
4:33 AM-6 °FClear.12 mph59%30.64 "Hg10 mi
4:14 AM-6 °FClear.3 mph59%30.63 "Hg10 mi
3:53 AM-6 °FClear.3 mph59%30.64 "Hg10 mi
3:34 AM-4 °FClear.3 mph54%N/A10 mi
3:14 AM-4 °FClear.No wind54%30.62 "Hg10 mi
2:53 AM-6 °FClear.3 mph59%30.63 "Hg10 mi
2:34 AM-4 °FClear.No wind54%30.63 "Hg10 mi
2:14 AM-6 °FClear.3 mph59%30.64 "Hg10 mi
1:53 AM-4 °FClear.7 mph54%30.64 "Hg10 mi
1:34 AM-4 °FClear.10 mph54%30.63 "Hg10 mi
1:14 AM-2 °FClear.7 mph49%30.63 "Hg10 mi
12:54 AM-2 °FClear.12 mph49%30.62 "Hg10 mi
12:34 AM-2 °FClear.10 mph54%30.61 "Hg10 mi
12:13 AM-2 °FClear.12 mph54%30.62 "Hg10 mi
11:54 PM
Fri, Feb 12
-2 °FClear.12 mph49%30.61 "Hg10 mi
11:34 PM-2 °FClear.14 mph49%30.60 "Hg10 mi
11:13 PM-2 °FClear.12 mph49%30.59 "Hg10 mi
Weather by CustomWeather, © 2016

See weather overviewHow to use our weather pages